GW0175 Weather Reports


Display with metric or nautical units.
time (UTC)temp
F
wind
direction
speed
MPH
gust
MPH
rain 1hr
in
rain 24hr
in
rain mn
in
humidity
%
barometer
mb
20260506071028 67 274 3.0 5.0 0.00 0.00 0.00 41 1007.3
20260506070525 67 277 4.0 4.0 0.00 0.00 0.00 42 1007.4
20260506062503 66 185 1.0 3.0 0.00 0.00 0.00 48 1007.5
20260506061959 65 180 1.0 3.0 0.00 0.00 0.00 50 1007.2
20260506061455 65 90 0.0 2.0 0.00 0.00 0.00 51 1007.3
20260506060953 65 139 0.0 3.0 0.00 0.00 0.00 50 1007.3
20260506060451 64 162 1.0 2.0 0.00 0.00 0.00 55 1007.3
20260506050920 66 270 0.0 2.0 0.00 0.00 0.00 51 1007.1
20260506050418 65 294 0.0 2.0 0.00 0.00 0.00 52 1007.3
20260506044908 64 216 2.0 2.0 0.00 0.00 0.00 55 1007.2
20260506044406 64 194 0.0 4.0 0.00 0.00 0.00 52 1007.2
20260506043903 65 208 2.0 4.0 0.00 0.00 0.00 56 1007.2
20260506043400 66 234 0.0 2.0 0.00 0.00 0.00 53 1006.9
20260506042858 66 261 0.0 1.0 0.00 0.00 0.00 52 1006.9
20260506042357 66 8 0.0 0.0 0.00 0.00 0.00 50 1007.1
20260506041855 66 8 0.0 0.0 0.00 0.00 0.00 47 1006.7
20260506041354 66 8 0.0 0.0 0.00 0.00 0.00 48 1006.8
20260506040849 66 8 0.0 0.0 0.00 0.00 0.00 47 1006.7
20260506040347 66 0 0.0 0.0 0.00 0.00 0.00 47 1006.9
20260506035843 67 0 0.0 0.0 0.00 0.00 0.00 47 1006.7
20260506035340 67 12 0.0 2.0 0.00 0.00 0.00 46 1006.6
20260506034837 66 29 1.0 2.0 0.00 0.00 0.00 47 1006.4
20260506034334 65 14 3.0 3.0 0.00 0.00 0.00 50 1006.8
20260506033831 67 131 0.0 0.0 0.00 0.00 0.00 45 1006.6
20260506033328 67 131 0.0 0.0 0.00 0.00 0.00 46 1006.6
20260506032825 67 131 0.0 0.0 0.00 0.00 0.00 46 1006.7
20260506032322 67 117 0.0 0.0 0.00 0.00 0.00 48 1006.5
20260506031819 67 90 0.0 1.0 0.00 0.00 0.00 48 1006.6
20260506031316 68 148 0.0 2.0 0.00 0.00 0.00 49 1006.5
20260506030814 68 74 0.0 1.0 0.00 0.00 0.00 45 1006.7
20260506030312 69 15 0.0 2.0 0.00 0.00 0.00 43 1006.4
20260506025808 70 35 0.0 2.0 0.00 0.00 0.00 42 1006.4
20260506025306 70 270 0.0 2.0 0.00 0.00 0.00 40 1006.2
20260506024802 70 240 0.0 0.0 0.00 0.00 0.00 40 1006.4
20260506024258 71 240 0.0 2.0 0.00 0.00 0.00 39 1006.2
20260506023754 71 311 0.0 2.0 0.00 0.00 0.00 38 1006.3
20260506023252 72 283 1.0 2.0 0.00 0.00 0.00 38 1006.1
20260506022748 72 277 0.0 2.0 0.00 0.00 0.00 37 1006.1
20260506022246 72 248 2.0 3.0 0.00 0.00 0.00 36 1006.1
20260506021744 73 270 0.0 2.0 0.00 0.00 0.00 36 1006.2
20260506021241 73 294 0.0 3.0 0.00 0.00 0.00 35 1006.1
20260506020737 73 263 3.0 4.0 0.00 0.00 0.00 35 1006.2
20260506020235 74 297 3.0 5.0 0.00 0.00 0.00 34 1006.0
20260506015733 74 290 4.0 8.0 0.00 0.00 0.00 34 1006.1
20260506015230 74 256 5.0 6.0 0.00 0.00 0.00 34 1006.2
20260506014727 74 292 3.0 7.0 0.00 0.00 0.00 33 1005.9
20260506014223 75 259 5.0 7.0 0.00 0.00 0.00 33 1006.0
20260506013721 75 307 6.0 9.0 0.00 0.00 0.00 32 1005.9
20260506013218 76 0 1.0 9.0 0.00 0.00 0.00 31 1006.0
20260506012714 75 287 5.0 12.0 0.00 0.00 0.00 32 1005.7
20260506012211 76 281 5.0 9.0 0.00 0.00 0.00 32 1005.9
20260506011708 76 313 3.0 6.0 0.00 0.00 0.00 32 1006.0
20260506011204 76 263 4.0 9.0 0.00 0.00 0.00 31 1005.9
20260506010703 77 259 5.0 11.0 0.00 0.00 0.00 30 1005.9
20260506010200 77 265 4.0 13.0 0.00 0.00 0.00 30 1005.7
20260506005657 77 268 5.0 16.0 0.00 0.00 0.00 29 1005.6
20260506005153 78 290 9.0 14.0 0.00 0.00 0.00 29 1005.7
20260506004649 78 261 4.0 16.0 0.00 0.00 0.00 29 1005.6
20260506004147 79 273 4.0 17.0 0.00 0.00 0.00 29 1005.6
20260506003643 79 261 6.0 12.0 0.00 0.00 0.00 29 1005.6
20260506003139 80 300 11.0 16.0 0.00 0.00 0.00 29 1005.5
20260506002636 79 275 8.0 20.0 0.00 0.00 0.00 29 1005.5
20260506002132 79 307 4.0 18.0 0.00 0.00 0.00 29 1005.7
20260506001627 80 270 11.0 17.0 0.00 0.00 0.00 28 1005.5
20260506001125 79 292 5.0 18.0 0.00 0.00 0.00 29 1005.6
20260506000622 79 292 5.0 17.0 0.00 0.00 0.00 28 1005.6
20260506000120 79 276 9.0 15.0 0.00 0.00 0.00 28 1005.9
20260505235618 81 288 8.0 12.0 0.00 0.00 0.00 28 1005.4
20260505235114 80 240 22.0 22.0 0.00 0.00 0.00 27 1005.5
20260505234611 81 243 11.0 16.0 0.00 0.00 0.00 27 1005.5
20260505234108 80 278 6.0 17.0 0.00 0.00 0.00 28 1005.6
20260505233606 81 246 5.0 11.0 0.00 0.00 0.00 28 1005.7
20260505233103 79 259 6.0 18.0 0.00 0.00 0.00 29 1006.0
20260505232601 79 253 8.0 19.0 0.00 0.00 0.00 30 1006.1
20260505232058 79 308 4.0 26.0 0.00 0.00 0.00 30 1005.9
20260505231554 79 296 6.0 16.0 0.00 0.00 0.00 30 1005.9
20260505231053 79 262 15.0 19.0 0.00 0.00 0.00 30 1006.1
20260505230550 79 315 3.0 15.0 0.00 0.00 0.00 31 1006.0
20260505230046 78 246 7.0 17.0 0.00 0.00 0.00 30 1006.3
20260505225544 78 275 10.0 26.0 0.00 0.00 0.00 30 1006.0
20260505225039 79 276 6.0 17.0 0.00 0.00 0.00 29 1006.0
20260505224537 80 287 7.0 21.0 0.00 0.00 0.00 29 1006.2
20260505224034 81 246 7.0 16.0 0.00 0.00 0.00 29 1005.9
20260505223531 80 281 9.0 20.0 0.00 0.00 0.00 29 1005.9
20260505223027 80 283 12.0 17.0 0.00 0.00 0.00 29 1006.1
20260505222523 80 270 5.0 18.0 0.00 0.00 0.00 30 1005.9
20260505222019 80 226 7.0 22.0 0.00 0.00 0.00 29 1006.0
20260505221517 80 241 4.0 16.0 0.00 0.00 0.00 29 1005.9
20260505221013 80 349 3.0 17.0 0.00 0.00 0.00 30 1006.2
20260505220510 81 274 9.0 18.0 0.00 0.00 0.00 29 1006.1
20260505220008 81 310 6.0 15.0 0.00 0.00 0.00 28 1006.2
20260505215506 80 284 9.0 23.0 0.00 0.00 0.00 29 1006.2
20260505215004 82 287 5.0 9.0 0.00 0.00 0.00 28 1006.2
20260505214502 80 277 8.0 22.0 0.00 0.00 0.00 29 1006.5
20260505213958 82 282 7.0 13.0 0.00 0.00 0.00 28 1006.4
20260505213456 83 286 11.0 11.0 0.00 0.00 0.00 28 1006.2
20260505212952 80 251 4.0 19.0 0.00 0.00 0.00 29 1006.1
20260505212449 82 297 11.0 15.0 0.00 0.00 0.00 28 1006.0
20260505211945 81 312 4.0 24.0 0.00 0.00 0.00 29 1006.5
20260505211443 82 270 3.0 17.0 0.00 0.00 0.00 27 1006.4
20260505210939 84 326 2.0 9.0 0.00 0.00 0.00 27 1006.1
20260505210437 83 327 5.0 13.0 0.00 0.00 0.00 27 1006.2
20260505205933 82 236 3.0 18.0 0.00 0.00 0.00 26 1006.1
20260505205432 82 281 13.0 16.0 0.00 0.00 0.00 27 1006.3
20260505204928 82 275 8.0 19.0 0.00 0.00 0.00 27 1006.2
20260505204426 82 213 3.0 15.0 0.00 0.00 0.00 27 1006.3
20260505203923 83 255 12.0 17.0 0.00 0.00 0.00 26 1006.1
20260505203419 82 257 12.0 18.0 0.00 0.00 0.00 26 1006.4
20260505202916 83 262 3.0 14.0 0.00 0.00 0.00 27 1006.1
20260505202412 81 299 8.0 20.0 0.00 0.00 0.00 28 1006.4
20260505201909 82 325 13.0 14.0 0.00 0.00 0.00 27 1006.5
20260505201406 81 237 12.0 16.0 0.00 0.00 0.00 28 1006.5
20260505200904 80 232 8.0 18.0 0.00 0.00 0.00 28 1006.5
20260505200401 81 263 6.0 15.0 0.00 0.00 0.00 28 1006.1
20260505195856 80 296 6.0 11.0 0.00 0.00 0.00 28 1006.5
20260505195354 80 257 8.0 15.0 0.00 0.00 0.00 29 1006.5
20260505194851 79 336 2.0 10.0 0.00 0.00 0.00 28 1006.5
20260505194348 79 278 4.0 13.0 0.00 0.00 0.00 29 1006.5
20260505193843 78 299 5.0 13.0 0.00 0.00 0.00 29 1006.5
20260505193341 77 280 7.0 13.0 0.00 0.00 0.00 29 1006.4
20260505192838 77 237 10.0 13.0 0.00 0.00 0.00 29 1006.4
20260505192337 77 288 6.0 16.0 0.00 0.00 0.00 29 1006.7
20260505191834 77 266 9.0 10.0 0.00 0.00 0.00 29 1006.6
20260505191332 76 256 10.0 15.0 0.00 0.00 0.00 29 1006.7
20260505190829 76 275 8.0 15.0 0.00 0.00 0.00 30 1006.9
20260505190324 76 270 4.0 11.0 0.00 0.00 0.00 29 1006.8
20260505185820 76 294 6.0 14.0 0.00 0.00 0.00 29 1006.7
20260505185317 75 284 5.0 14.0 0.00 0.00 0.00 29 1007.1
20260505184813 75 345 2.0 12.0 0.00 0.00 0.00 29 1006.8
20260505184310 75 307 13.0 14.0 0.00 0.00 0.00 28 1006.7
20260505183807 76 275 4.0 17.0 0.00 0.00 0.00 29 1007.2
20260505183304 76 253 6.0 11.0 0.00 0.00 0.00 28 1006.9
20260505182801 76 232 4.0 13.0 0.00 0.00 0.00 28 1007.2
20260505182257 76 318 3.0 13.0 0.00 0.00 0.00 29 1007.3
20260505181754 76 263 5.0 9.0 0.00 0.00 0.00 30 1007.3
20260505181251 76 263 3.0 9.0 0.00 0.00 0.00 30 1007.3
20260505180748 76 290 3.0 7.0 0.00 0.00 0.00 30 1007.5
20260505180244 76 313 3.0 11.0 0.00 0.00 0.00 29 1007.5
20260505175741 76 270 5.0 12.0 0.00 0.00 0.00 29 1007.6
20260505175237 76 266 12.0 17.0 0.00 0.00 0.00 29 1007.4
20260505174734 76 285 4.0 15.0 0.00 0.00 0.00 30 1007.2
20260505174231 76 296 0.0 10.0 0.00 0.00 0.00 29 1007.5
20260505173727 76 249 11.0 14.0 0.00 0.00 0.00 30 1007.5
20260505173224 76 275 4.0 12.0 0.00 0.00 0.00 30 1007.6
20260505172721 76 298 5.0 15.0 0.00 0.00 0.00 31 1007.5
20260505172218 76 263 5.0 8.0 0.00 0.00 0.00 31 1007.3
20260505171718 76 246 10.0 15.0 0.00 0.00 0.00 31 1007.2
20260505171215 76 255 4.0 10.0 0.00 0.00 0.00 32 1007.3
20260505170712 76 274 6.0 8.0 0.00 0.00 0.00 32 1007.2
20260505170209 76 277 6.0 10.0 0.00 0.00 0.00 32 1007.4
20260505165704 76 279 5.0 13.0 0.00 0.00 0.00 32 1007.4
20260505165200 75 259 6.0 14.0 0.00 0.00 0.00 33 1007.4
20260505164655 76 264 3.0 11.0 0.00 0.00 0.00 33 1007.3
20260505164153 76 240 5.0 13.0 0.00 0.00 0.00 33 1007.2
20260505163651 76 228 6.0 10.0 0.00 0.00 0.00 34 1007.4
20260505163149 76 263 4.0 13.0 0.00 0.00 0.00 34 1007.4
20260505162646 75 247 7.0 10.0 0.00 0.00 0.00 33 1007.5
20260505162144 76 259 7.0 12.0 0.00 0.00 0.00 32 1007.5
20260505161640 76 308 9.0 12.0 0.00 0.00 0.00 33 1007.6
20260505161138 76 240 7.0 13.0 0.00 0.00 0.00 33 1007.5
20260505160636 75 263 4.0 14.0 0.00 0.00 0.00 33 1007.5
20260505160133 75 270 4.0 15.0 0.00 0.00 0.00 33 1007.4
20260505153112 74 131 2.0 5.0 0.00 0.00 0.00 38 1007.3
20260505152609 74 303 0.0 4.0 0.00 0.00 0.00 35 1007.2
20260505152104 73 4 4.0 5.0 0.00 0.00 0.00 36 1007.1
20260505151600 73 98 0.0 3.0 0.00 0.00 0.00 39 1007.4
20260505151058 72 29 1.0 3.0 0.00 0.00 0.00 40 1007.4
20260505150553 72 49 3.0 4.0 0.00 0.00 0.00 42 1007.4
20260505140519 70 25 3.0 9.0 0.00 0.00 0.00 37 1007.3
20260505124932 68 259 3.0 3.0 0.00 0.00 0.00 42 1006.0
20260505124429 68 261 0.0 4.0 0.00 0.00 0.00 42 1005.9
20260505123925 67 255 1.0 5.0 0.00 0.00 0.00 43 1006.0
20260505123422 66 264 1.0 5.0 0.00 0.00 0.00 45 1005.7
20260505122917 66 301 2.0 7.0 0.00 0.00 0.00 44 1005.4
20260505122416 65 286 0.0 3.0 0.00 0.00 0.00 47 1005.7
20260505121912 64 8 0.0 0.0 0.00 0.00 0.00 50 1006.0
20260505121409 65 276 0.0 4.0 0.00 0.00 0.00 46 1006.1
20260505120905 66 346 0.0 3.0 0.00 0.00 0.00 46 1005.6
20260505120402 68 300 1.0 3.0 0.00 0.00 0.00 38 1005.7
20260505115900 68 270 2.0 2.0 0.00 0.00 0.00 37 1005.7
20260505115357 68 278 1.0 2.0 0.00 0.00 0.00 37 1005.7
20260505114855 69 279 2.0 3.0 0.00 0.00 0.00 36 1005.9
20260505114351 69 254 1.0 2.0 0.00 0.00 0.00 35 1005.6
20260505113848 68 255 0.0 1.0 0.00 0.00 0.00 35 1005.4
20260505113344 68 246 0.0 2.0 0.00 0.00 0.00 35 1005.4
20260505112840 67 145 1.0 1.0 0.00 0.00 0.00 38 1005.5
20260505112338 67 227 0.0 3.0 0.00 0.00 0.00 38 1005.3
20260505111833 66 209 0.0 3.0 0.00 0.00 0.00 41 1005.5
20260505111329 65 172 0.0 3.0 0.00 0.00 0.00 43 1005.5
20260505110825 64 203 0.0 2.0 0.00 0.00 0.00 46 1005.5
20260505110323 64 90 0.0 0.0 0.00 0.00 0.00 49 1005.5
20260505101757 65 115 2.0 3.0 0.00 0.00 0.00 42 1005.5
20260505101253 64 161 2.0 3.0 0.00 0.00 0.00 47 1005.4
20260505100749 65 166 3.0 3.0 0.00 0.00 0.00 45 1005.3
20260505100246 64 145 1.0 3.0 0.00 0.00 0.00 47 1005.2
20260505095741 62 172 0.0 0.0 0.00 0.00 0.00 50 1005.3
20260505095240 63 14 0.0 3.0 0.00 0.00 0.00 53 1005.3
20260505094735 62 0 0.0 0.0 0.00 0.00 0.00 51 1005.4
20260505094231 62 81 0.0 2.0 0.00 0.00 0.00 55 1005.1
20260505093728 63 26 2.0 3.0 0.00 0.00 0.00 52 1005.3
20260505093225 63 90 0.0 0.0 0.00 0.00 0.00 51 1005.2
20260505092722 64 90 0.0 1.0 0.00 0.00 0.00 45 1005.0
20260505092221 65 157 0.0 1.0 0.00 0.00 0.00 44 1005.3
20260505091718 66 169 0.0 0.0 0.00 0.00 0.00 45 1005.1
20260505091216 66 180 0.0 0.0 0.00 0.00 0.00 44 1005.4
20260505090713 66 195 0.0 0.0 0.00 0.00 0.00 42 1005.2
20260505090211 66 188 0.0 3.0 0.00 0.00 0.00 42 1005.3
20260505085708 66 180 0.0 0.0 0.00 0.00 0.00 44 1005.4
20260505085206 66 180 0.0 1.0 0.00 0.00 0.00 46 1005.5
20260505084703 65 249 0.0 2.0 0.00 0.00 0.00 48 1005.4
20260505084202 64 249 0.0 2.0 0.00 0.00 0.00 52 1005.3
20260505083659 64 180 1.0 3.0 0.00 0.00 0.00 52 1005.4
20260505083155 64 244 4.0 4.0 0.00 0.00 0.00 52 1005.3
20260505082651 63 200 1.0 5.0 0.00 0.00 0.00 51 1005.2
20260505082148 63 241 2.0 3.0 0.00 0.00 0.00 53 1005.3
20260505081644 64 201 2.0 3.0 0.00 0.00 0.00 54 1005.4
20260505081142 63 213 2.0 3.0 0.00 0.00 0.00 56 1005.4
20260505080639 63 208 2.0 2.0 0.00 0.00 0.00 56 1005.6
20260505080135 63 257 2.0 3.0 0.00 0.00 0.00 55 1005.6
20260505075631 63 208 2.0 2.0 0.00 0.00 0.00 55 1005.5
20260505075128 63 219 3.0 3.0 0.00 0.00 0.00 57 1005.7
20260505074625 63 235 4.0 4.0 0.00 0.00 0.00 56 1005.6
20260505074122 62 230 3.0 3.0 0.00 0.00 0.00 58 1005.6
20260505073620 62 213 2.0 3.0 0.00 0.00 0.00 58 1005.6
20260505073118 62 253 3.0 3.0 0.00 0.00 0.00 59 1005.7
20260505072613 62 243 3.0 3.0 0.00 0.00 0.00 58 1005.5
20260505072110 62 245 2.0 3.0 0.00 0.00 0.00 58 1005.6
20260505071605 62 217 2.0 3.0 0.00 0.00 0.00 56 1006.0